Doha, Qatar

12:24 PM +03 on December 18, 2017 (GMT +0300)
Doha International

Weather History for OTBD - November, 2011

Change the Weather History Date:

Monday, November 21, 2011

  Actual Average Record
Temperature  
Mean Temperature 82 °F -  
Max Temperature 87 °F 78 °F 87 °F (1998)
Min Temperature 76 °F 61 °F 62 °F (2001)
Cooling Degree Days 16    
Growing Degree Days 32 (Base 50)    
Moisture  
Dew Point 67 °F    
Average Humidity 65    
Maximum Humidity 83    
Minimum Humidity 38    
Precipitation  
Precipitation 0.00 in 0.01 in - ()
Sea Level Pressure  
Sea Level Pressure 29.96 in    
Wind  
Wind Speed 7 mph ()    
Max Wind Speed 16 mph    
Max Gust Speed -    
Visibility 7.3 miles    
Events      
Averages and records for this station are not official NWS values.
T = Trace of Precipitation, MM = Missing Value Source: Averaged Metar Reports

Daily Weather History Graph

Daily Weather History Graph

Search for Another Location

Airport or City:

Trip Planner

Search our weather history database for the weather conditions in past years. The results will help you decide how hot, cold, wet, or windy it might be!

Date:

Astronomy

Nov. 21, 2011 Rise Set
Actual Time 5:54 AM +03 4:44 PM +03
Civil Twilight 5:30 AM +03 5:08 PM +03
Nautical Twilight 5:02 AM +03 5:36 PM +03
Astronomical Twilight 4:34 AM +03 6:03 PM +03
Moon 1:29 AM +03 (11/21) 1:32 PM +03 (11/21)
Length of Visible Light 11h 38m
Length of Day
10h 49m
Waning Crescent, 21% of the Moon is Illuminated
Nov 21
Waning Crescent
Nov 25
New
Dec 2
First Quarter
Dec 10
Full
Dec 18
Last Quarter

Hourly Weather History & Observations

Time (+03) Temp. Heat Index Dew Point Humidity Pressure Visibility Wind Dir Wind Speed Gust Speed Precip Events Conditions
12:00 AM 78.8 °F - 71.6 °F 78% 29.95 in - East 4.6 mph - N/A   Clear
12:30 AM 78.8 °F - 71.6 °F 78% 29.95 in - East 4.6 mph - N/A   Clear
1:00 AM 78.8 °F - 73.4 °F 83% 29.95 in - East 5.8 mph - N/A   Clear
1:30 AM 78.8 °F - 73.4 °F 83% 29.95 in - East 6.9 mph - N/A   Clear
2:00 AM 78.8 °F - 73.4 °F 83% 29.95 in - East 6.9 mph - N/A   Clear
2:30 AM 78.8 °F - 73.4 °F 83% 29.95 in - ESE 8.1 mph - N/A   Clear
3:00 AM 78 °F - 72 °F 78% 29.95 in 6 mi ESE 11.5 mph - -  
3:00 AM 78.8 °F - 73.4 °F 83% 29.95 in - ESE 11.5 mph - N/A   Clear
3:30 AM 78.8 °F - 73.4 °F 83% 29.95 in - ESE 11.5 mph - N/A   Clear
4:00 AM 78.8 °F - 71.6 °F 78% 29.95 in - ESE 11.5 mph - N/A   Clear
4:30 AM 78.8 °F - 71.6 °F 78% 29.95 in - SE 10.4 mph - N/A   Clear
5:00 AM 77.0 °F - 71.6 °F 83% 29.95 in - SE 10.4 mph - N/A   Clear
5:30 AM 77.0 °F - 69.8 °F 78% 29.95 in - SE 8.1 mph - N/A   Clear
6:00 AM 77.0 °F - 69.8 °F 78% 29.98 in - SE 9.2 mph - N/A   Clear
6:30 AM 77.0 °F - 69.8 °F 78% 29.98 in - SSE 8.1 mph - N/A   Clear
7:00 AM 78.8 °F - 69.8 °F 74% 29.98 in - SSE 6.9 mph - N/A   Clear
7:30 AM 80.6 °F 83.2 °F 68.0 °F 65% 30.01 in - SE 9.2 mph - N/A   Clear
8:00 AM 82.4 °F 83.9 °F 64.4 °F 54% 30.01 in - SSE 6.9 mph - N/A   Clear
8:30 AM 84.2 °F 85.0 °F 62.6 °F 48% 30.01 in - SSE 6.9 mph - N/A   Clear
9:00 AM 84 °F - 63 °F 39% 30.03 in 9 mi South 8.1 mph - -  
9:00 AM 84.2 °F 85.0 °F 62.6 °F 48% 30.01 in - South 8.1 mph - N/A   Clear
9:30 AM 84.2 °F 85.6 °F 64.4 °F 51% 30.01 in - South 6.9 mph - N/A   Clear
10:00 AM 86.0 °F 88.2 °F 66.2 °F 51% 30.01 in - SSE 10.4 mph - N/A   Clear
11:00 AM 87.8 °F 87.1 °F 59.0 °F 38% 29.98 in 6.2 mi SSE 11.5 mph - N/A   Partly Cloudy
11:30 AM 86.0 °F 87.3 °F 64.4 °F 48% 29.98 in 6.2 mi SE 16.1 mph - N/A   Mostly Cloudy
12:00 PM 86.0 °F 86.6 °F 62.6 °F 45% 29.95 in 6.2 mi SE 13.8 mph - N/A   Scattered Clouds
12:30 PM 86.0 °F 86.6 °F 62.6 °F 45% 29.95 in - SE 12.7 mph - N/A   Clear
1:00 PM 86.0 °F 86.6 °F 62.6 °F 45% 29.92 in - SE 12.7 mph - N/A   Clear
1:30 PM 86.0 °F 87.3 °F 64.4 °F 48% 29.92 in - SE 11.5 mph - N/A   Clear
2:00 PM 86.0 °F 88.2 °F 66.2 °F 51% 29.92 in - SE 12.7 mph - N/A   Clear
2:30 PM 86.0 °F 86.1 °F 60.8 °F 43% 29.92 in - SE 11.5 mph - N/A   Clear
3:00 PM 84.2 °F 83.5 °F 57.2 °F 40% 29.92 in - SSE 10.4 mph - N/A   Clear
3:30 PM 84.2 °F 83.5 °F 57.2 °F 40% 29.95 in - SE 8.1 mph - N/A   Clear
4:00 PM 84.2 °F 84.4 °F 60.8 °F 45% 29.95 in - ESE 6.9 mph - N/A   Clear
4:30 PM 82.4 °F 83.9 °F 64.4 °F 54% 29.95 in - East 5.8 mph - N/A   Clear
5:30 PM 80.6 °F 83.2 °F 68.0 °F 65% 29.95 in - ENE 4.6 mph - N/A   Clear
6:00 PM 78.8 °F - 68.0 °F 69% 29.95 in - ENE 5.8 mph - N/A   Clear
6:30 PM 78.8 °F - 68.0 °F 69% 29.95 in - East 8.1 mph - N/A   Clear
7:00 PM 78.8 °F - 68.0 °F 69% 29.95 in - ENE 5.8 mph - N/A   Clear
7:30 PM 78.8 °F - 69.8 °F 74% 29.98 in - ENE 4.6 mph - N/A   Clear
8:00 PM 78.8 °F - 71.6 °F 78% 29.98 in - ENE 5.8 mph - N/A   Clear
8:30 PM 78.8 °F - 69.8 °F 74% 29.98 in - ENE 5.8 mph - N/A   Clear
9:00 PM 78 °F - 69 °F 68% 29.99 in 10 mi ENE 5.8 mph - -  
9:00 PM 78.8 °F - 69.8 °F 74% 29.98 in - ENE 5.8 mph - N/A   Clear
9:30 PM 78.8 °F - 69.8 °F 74% 29.98 in - ENE 4.6 mph - N/A   Clear
10:00 PM 78.8 °F - 68.0 °F 69% 29.98 in - ENE 4.6 mph - N/A   Clear
10:30 PM 78.8 °F - 68.0 °F 69% 29.98 in - East 5.8 mph - N/A   Clear
11:00 PM 78.8 °F - 68.0 °F 69% 29.95 in - East 8.1 mph - N/A   Clear
11:30 PM 78.8 °F - 66.2 °F 65% 29.95 in - East 8.1 mph - N/A   Clear